Location: Karcze
(52.0945°N, 22.4786°E)
Time: 22:44:29
(UTC+00:00)

Transit 4A - Pass Details

Date: 04 August 2021
Orbit: 871 x 974 km, 66.8° (Epoch: 18 September)

Event Time Altitude Azimuth Distance (km) Brightness Sun altitude
Exits shadow 23:13:06 13° 250° (WSW) 2,294 9.7 -20.5°
Maximum altitude 23:18:00 45° 320° (NW) 1,173 8.7 -20.3°
Drops below altitude 10° 23:23:35 10° 34° (NNE) 2,531 11.2 -20.2°
Sets 23:26:12 0° 40° (NE) 3,476 12.0 -20.1°
